Date String (YYYY-MM-DD hh:mm:ss) UTC,Instrument flags,Ambient pressure (hPa),Sample flow (lpm),Bypass flow (lpm),Sample temperature (°C),Ambient temperature (°C),ASC tube jacket temperature (°C),LED temperature (°C),Box temperature (°C),Sample RH (%),Span deviation,Mass concentration (μg/m³),Mass concentration (μg/m³),Mass concentration (μg/m³)
DateTimeUTC,F1_M11,P_M11,Q1_M11,Q2_M11,T1_M11,T2_M11,T3_M11,T4_M11,T5_M11,U1_M11,ZSPAN_M11,X0_M11,X2_M11,X1_M11
2022-10-09 09:00:00,,0832.7,5.00,0.00,27.7,26.1,00.0,36.6,29.5,16.1,-000.6,0009.17,0005.98,0005.60
2022-10-09 09:01:00,,0832.7,5.00,0.00,27.7,26.1,00.0,36.6,29.5,16.1,-000.1,0009.18,0005.98,0005.61
2022-10-09 09:02:00,,0832.7,4.99,0.00,27.7,26.1,00.0,36.6,29.6,16.1,-000.3,0009.23,0005.99,0005.61
2022-10-09 09:03:00,,0832.7,5.01,0.00,27.7,26.1,00.0,36.6,29.5,16.2,-000.5,0009.30,0006.04,0005.61
2022-10-09 09:04:00,,0832.7,4.99,0.00,27.7,26.1,00.0,36.6,29.6,16.2,-000.8,0009.21,0006.05,0005.61
2022-10-09 09:05:00,,0832.7,5.01,0.00,27.7,26.2,00.0,36.5,29.6,16.2,-000.6,0009.26,0006.05,0005.62
2022-10-09 09:06:00,,0832.6,5.00,0.00,27.7,26.2,00.0,36.6,29.6,16.1,-001.0,0009.26,0006.04,0005.62
2022-10-09 09:07:00,,0832.6,5.00,0.00,27.7,26.1,00.0,36.6,29.5,15.8,-001.5,0009.27,0006.02,0005.61
2022-10-09 09:08:00,,0832.6,5.00,0.00,27.7,26.1,00.0,36.5,29.5,15.8,-001.4,0009.20,0006.03,0005.59
2022-10-09 09:09:00,,0832.6,5.01,0.00,27.7,26.1,00.0,36.5,29.5,15.6,-001.2,0008.97,0006.01,0005.55
2022-10-09 09:10:00,,0832.6,4.99,0.00,27.7,26.1,00.0,36.5,29.5,15.6,-001.4,0008.91,0005.96,0005.52
2022-10-09 09:11:00,,0832.5,4.99,0.00,27.7,26.1,00.0,36.5,29.5,15.6,-001.0,0008.86,0005.91,0005.47
2022-10-09 09:12:00,,0832.5,5.01,0.00,27.7,26.1,00.0,36.5,29.5,15.5,-001.1,0008.87,0005.88,0005.43
2022-10-09 09:13:00,,0832.6,4.99,0.00,27.7,26.1,00.0,36.5,29.5,15.5,-001.0,0008.99,0005.82,0005.37
2022-10-09 09:14:00,,0832.6,5.00,0.00,27.7,26.1,00.0,36.5,29.5,15.5,-000.6,0009.17,0005.76,0005.32
2022-10-09 09:15:00,,0832.5,4.99,0.00,27.7,26.1,00.0,36.5,29.5,15.5,-000.4,0009.13,0005.70,0005.28
2022-10-09 09:16:00,,0832.6,5.01,0.00,27.7,26.1,00.0,36.5,29.5,15.6,-000.6,0009.02,0005.65,0005.24
2022-10-09 09:17:00,,0832.6,4.99,0.00,27.7,26.1,00.0,36.5,29.5,15.6,-000.7,0009.28,0005.59,0005.19
2022-10-09 09:18:00,,0832.6,5.01,0.00,27.7,26.0,00.0,36.5,29.5,15.5,-000.5,0009.12,0005.53,0005.15
2022-10-09 09:19:00,,0832.6,5.00,0.00,27.7,26.1,00.0,36.5,29.5,15.4,-000.4,0009.08,0005.49,0005.12
2022-10-09 09:20:00,,0832.6,4.99,0.00,27.7,26.1,00.0,36.5,29.5,15.4,-000.3,0009.10,0005.46,0005.09
2022-10-09 09:21:00,,0832.6,5.02,0.00,27.7,26.1,00.0,36.5,29.5,15.4,-000.3,0009.14,0005.48,0005.10
2022-10-09 09:22:00,,0832.7,4.99,0.00,27.7,26.1,00.0,36.5,29.5,15.4,-000.2,0009.20,0005.52,0005.13
2022-10-09 09:23:00,,0832.6,5.01,0.00,27.7,26.1,00.0,36.5,29.5,15.6,-000.2,0009.22,0005.54,0005.16
2022-10-09 09:24:00,,0832.6,5.00,0.00,27.7,26.1,00.0,36.5,29.5,15.8,-000.1,0009.18,0005.59,0005.21
2022-10-09 09:25:00,,0832.6,5.01,0.00,27.7,26.1,00.0,36.5,29.5,15.8,-000.4,0008.81,0005.64,0005.26
2022-10-09 09:26:00,,0832.6,5.00,0.00,27.7,26.1,00.0,36.5,29.5,16.0,-000.1,0008.89,0005.71,0005.31
2022-10-09 09:27:00,,0832.6,4.99,0.00,27.7,26.1,00.0,36.5,29.5,16.0,0000.1,0008.94,0005.77,0005.38
2022-10-09 09:28:00,,0832.6,5.01,0.00,27.7,26.1,00.0,36.5,29.5,16.2,0000.1,0008.69,0005.87,0005.48
2022-10-09 09:29:00,,0832.6,4.99,0.00,27.7,26.1,00.0,36.5,29.5,16.3,0000.7,0008.87,0006.03,0005.60
2022-10-09 09:30:00,,0832.6,5.01,0.00,27.7,26.1,00.0,36.5,29.5,16.4,0000.9,0009.02,0006.18,0005.73
2022-10-09 09:31:00,,0832.6,4.98,0.00,27.7,26.1,00.0,36.5,29.5,16.5,0000.8,0009.07,0006.28,0005.85
2022-10-09 09:32:00,,0832.6,5.01,0.00,27.7,26.1,00.0,36.5,29.5,16.5,0000.8,0009.14,0006.37,0005.96
2022-10-09 09:33:00,,0832.6,4.99,0.00,27.7,26.1,00.0,36.5,29.5,16.6,0000.4,0009.27,0006.47,0006.06
2022-10-09 09:34:00,,0832.6,5.00,0.00,27.7,26.1,00.0,36.4,29.5,16.6,0000.3,0009.55,0006.62,0006.16
2022-10-09 09:35:00,,0832.6,5.00,0.00,27.7,26.1,00.0,36.4,29.5,16.8,0000.6,0009.89,0006.75,0006.26
2022-10-09 09:36:00,,0832.6,5.00,0.00,27.7,26.1,00.0,36.5,29.5,16.8,0000.5,0010.13,0006.84,0006.34
2022-10-09 09:37:00,,0832.6,5.01,0.00,27.7,26.1,00.0,36.4,29.5,16.7,0000.3,0010.16,0006.89,0006.41
2022-10-09 09:38:00,,0832.6,4.99,0.00,27.7,26.1,00.0,36.4,29.5,16.9,0000.5,0010.27,0007.00,0006.51
2022-10-09 09:39:00,,0832.6,5.02,0.00,27.7,26.1,00.0,36.5,29.5,16.9,0000.7,0010.43,0007.11,0006.61
2022-10-09 09:40:00,,0832.6,4.99,0.00,27.7,26.1,00.0,36.5,29.5,16.9,0000.5,0010.57,0007.22,0006.69
2022-10-09 09:41:00,,0832.6,4.99,0.00,27.7,26.1,00.0,36.5,29.5,16.9,-000.2,0010.68,0007.30,0006.77
2022-10-09 09:42:00,,0832.6,5.01,0.00,27.7,26.1,00.0,36.5,29.5,16.9,-000.0,0010.96,0007.42,0006.84
2022-10-09 09:43:00,,0832.6,4.99,0.00,27.7,26.1,00.0,36.5,29.5,16.9,0000.2,0011.23,0007.53,0006.91
2022-10-09 09:44:00,,0832.6,5.01,0.00,27.7,26.1,00.0,36.5,29.5,16.9,0000.6,0011.29,0007.61,0006.98
2022-10-09 09:45:00,,0832.6,4.99,0.00,27.6,26.1,00.0,36.4,29.5,16.9,0000.9,0011.33,0007.66,0007.04
2022-10-09 09:46:00,,0832.6,5.01,0.00,27.6,26.1,00.0,36.4,29.5,17.0,0000.6,0011.61,0007.68,0007.10
2022-10-09 09:47:00,,0832.6,5.00,0.00,27.6,26.1,00.0,36.4,29.5,17.2,0000.5,0011.93,0007.76,0007.17
2022-10-09 09:48:00,,0832.6,5.00,0.00,27.6,26.1,00.0,36.4,29.5,17.3,0000.9,0012.49,0007.93,0007.26
2022-10-09 09:49:00,,0832.6,5.01,0.00,27.6,26.1,00.0,36.4,29.5,17.2,0000.7,0012.76,0008.04,0007.33
2022-10-09 09:50:00,,0832.6,4.99,0.00,27.6,26.1,00.0,36.4,29.5,17.0,0000.5,0013.33,0008.07,0007.36
2022-10-09 09:51:00,,0832.6,5.00,0.00,27.6,26.1,00.0,36.4,29.5,16.8,0000.9,0013.25,0008.02,0007.34
2022-10-09 09:52:00,,0832.6,5.00,0.00,27.6,26.1,00.0,36.4,29.5,16.8,0001.7,0013.11,0007.94,0007.29
2022-10-09 09:53:00,,0832.6,5.00,0.00,27.6,26.1,00.0,36.4,29.5,16.9,0001.8,0012.92,0007.87,0007.26
2022-10-09 09:54:00,,0832.6,4.99,0.00,27.6,26.1,00.0,36.4,29.5,16.8,0001.5,0012.76,0007.82,0007.23
2022-10-09 09:55:00,,0832.6,5.01,0.00,27.6,26.1,00.0,36.4,29.5,16.9,0001.8,0012.84,0007.81,0007.18
2022-10-09 09:56:00,,0832.6,4.99,0.00,27.6,26.1,00.0,36.4,29.5,17.1,0001.6,0012.83,0007.80,0007.17
2022-10-09 09:57:00,,0832.6,5.01,0.00,27.6,26.1,00.0,36.4,29.5,17.2,0001.4,0012.69,0007.87,0007.20
2022-10-09 09:58:00,,0832.5,4.99,0.00,27.6,26.0,00.0,36.4,29.5,17.3,0001.4,0012.19,0007.86,0007.20
2022-10-09 09:59:00,,0832.5,5.01,0.00,27.6,26.0,00.0,36.4,29.5,17.4,0001.4,0011.75,0007.80,0007.17
